Fernandina Beach, FL

1:22 AM EST on January 20, 2017 (GMT -0500)
Fernandina Beach

Weather History for KFHB - February, 2013

Change the Weather History Date:

Sunday, February 10, 2013

  Actual Average (KNRB) Record (KNRB)
Temperature  
Mean Temperature 63 °F -  
Max Temperature 71 °F 63 °F 77 °F (2002)
Min Temperature 55 °F 48 °F 32 °F (2016)
Degree Days  
Heating Degree Days 2    
Growing Degree Days 13 (Base 50)    
Moisture  
Dew Point 59 °F    
Average Humidity 86    
Maximum Humidity 100    
Minimum Humidity 69    
Precipitation  
Precipitation 0.00 in - - ()
Sea Level Pressure  
Sea Level Pressure 30.24 in    
Wind  
Wind Speed 10 mph (ESE)    
Max Wind Speed 15 mph    
Max Gust Speed 22 mph    
Visibility 10 miles    
Events      
Averages and records for this station are not official NWS values.
T = Trace of Precipitation, MM = Missing Value Source: NWS Daily Summary

Daily Weather History Graph

Daily Weather History Graph

Search for Another Location

Airport or City:

Trip Planner

Search our weather history database for the weather conditions in past years. The results will help you decide how hot, cold, wet, or windy it might be!

Date:

Astronomy

Feb. 10, 2013 Rise Set
Actual Time 7:10 AM EST 6:10 PM EST
Civil Twilight 6:45 AM EST 6:34 PM EST
Nautical Twilight 6:17 AM EST 7:03 PM EST
Astronomical Twilight 5:49 AM EST 7:31 PM EST
Moon 7:04 AM EST (2/10) 6:52 PM EST (2/10)
Length of Visible Light 11h 49m
Length of Day
10h 59m
New Moon, 0% of the Moon is Illuminated
Feb 10
New Moon
Feb 17
First Quarter
Feb 25
Full
Mar 4
Last Quarter
Mar 11
New

Hourly Weather History & Observations

Time (EST) Temp. Dew Point Humidity Pressure Visibility Wind Dir Wind Speed Gust Speed Precip Events Conditions
12:15 AM 55.4 °F 51.8 °F 88% 30.26 in 10.0 mi ENE 10.4 mph 18.4 mph N/A   Clear
12:35 AM 55.4 °F 53.6 °F 94% 30.26 in 10.0 mi ENE 10.4 mph - N/A   Clear
12:55 AM 57.2 °F 53.6 °F 88% 30.26 in 10.0 mi ENE 12.7 mph - N/A   Clear
1:15 AM 57.2 °F 53.6 °F 88% 30.26 in 10.0 mi ENE 12.7 mph 16.1 mph N/A   Clear
1:35 AM 55.4 °F 51.8 °F 88% 30.26 in 10.0 mi ENE 12.7 mph - N/A   Clear
1:55 AM 55.4 °F 53.6 °F 94% 30.26 in 10.0 mi ENE 11.5 mph - N/A   Clear
2:15 AM 55.4 °F 53.6 °F 94% 30.26 in 10.0 mi ENE 8.1 mph - N/A   Clear
2:35 AM 55.4 °F 53.6 °F 94% 30.26 in 10.0 mi ENE 10.4 mph - N/A   Clear
2:55 AM 55.4 °F 53.6 °F 94% 30.25 in 10.0 mi ENE 9.2 mph - N/A   Clear
3:15 AM 55.4 °F 53.6 °F 94% 30.25 in 10.0 mi ENE 9.2 mph - N/A   Clear
3:35 AM 55.4 °F 55.4 °F 100% 30.25 in 10.0 mi NE 6.9 mph - N/A   Clear
3:55 AM 55.4 °F 55.4 °F 100% 30.24 in 10.0 mi ENE 9.2 mph - N/A   Clear
4:15 AM 55.4 °F 55.4 °F 100% 30.24 in 10.0 mi ENE 8.1 mph - N/A   Clear
4:35 AM 55.4 °F 55.4 °F 100% 30.24 in 10.0 mi ENE 4.6 mph - N/A   Clear
4:55 AM 59.0 °F 57.2 °F 94% 30.24 in 10.0 mi East 5.8 mph - N/A   Clear
5:15 AM 60.8 °F 55.4 °F 82% 30.24 in 10.0 mi ESE 6.9 mph - N/A   Clear
5:35 AM 60.8 °F 55.4 °F 82% 30.24 in 10.0 mi ESE 6.9 mph - N/A   Clear
5:55 AM 60.8 °F 57.2 °F 88% 30.24 in 10.0 mi ESE 5.8 mph - N/A   Clear
6:15 AM 60.8 °F 55.4 °F 82% 30.25 in 10.0 mi East 5.8 mph - N/A   Clear
6:35 AM 60.8 °F 57.2 °F 88% 30.25 in 10.0 mi ESE 6.9 mph - N/A   Clear
6:55 AM 60.8 °F 57.2 °F 88% 30.26 in 10.0 mi ESE 6.9 mph - N/A   Clear
7:15 AM 60.8 °F 57.2 °F 88% 30.27 in 10.0 mi East 6.9 mph - N/A   Clear
7:35 AM 60.8 °F 57.2 °F 88% 30.27 in 10.0 mi ESE 6.9 mph - N/A   Scattered Clouds
7:55 AM 62.6 °F 59.0 °F 88% 30.29 in 10.0 mi ESE 5.8 mph - N/A   Scattered Clouds
8:15 AM 62.6 °F 59.0 °F 88% 30.29 in 10.0 mi ESE 6.9 mph - N/A   Clear
8:35 AM 62.6 °F 59.0 °F 88% 30.29 in 10.0 mi ESE 6.9 mph - N/A   Clear
8:55 AM 64.4 °F 59.0 °F 83% 30.29 in 10.0 mi ESE 8.1 mph - N/A   Clear
9:15 AM 66.2 °F 59.0 °F 78% 30.30 in 10.0 mi ESE 6.9 mph - N/A   Scattered Clouds
9:35 AM 66.2 °F 59.0 °F 78% 30.30 in 10.0 mi ESE 9.2 mph - N/A   Clear
9:55 AM 68.0 °F 59.0 °F 73% 30.29 in 10.0 mi SE 11.5 mph 16.1 mph N/A   Clear
10:15 AM 68.0 °F 60.8 °F 78% 30.30 in 10.0 mi SE 11.5 mph - N/A   Clear
10:35 AM 68.0 °F 60.8 °F 78% 30.30 in 10.0 mi ESE 10.4 mph - N/A   Clear
10:55 AM 68.0 °F 60.8 °F 78% 30.32 in 10.0 mi SE 11.5 mph - N/A   Scattered Clouds
11:15 AM 69.8 °F 60.8 °F 73% 30.31 in 10.0 mi SE 11.5 mph - N/A   Scattered Clouds
11:35 AM 69.8 °F 60.8 °F 73% 30.30 in 10.0 mi SE 11.5 mph - N/A   Scattered Clouds
11:55 AM 69.8 °F 60.8 °F 73% 30.29 in 10.0 mi SSE 11.5 mph - N/A   Mostly Cloudy
12:15 PM 69.8 °F 60.8 °F 73% 30.29 in 10.0 mi SE 12.7 mph 18.4 mph N/A   Scattered Clouds
12:35 PM 68.0 °F 60.8 °F 78% 30.28 in 10.0 mi SE 8.1 mph - N/A   Scattered Clouds
12:55 PM 69.8 °F 60.8 °F 73% 30.27 in 10.0 mi SSE 10.4 mph - N/A   Scattered Clouds
1:15 PM 69.8 °F 60.8 °F 73% 30.27 in 10.0 mi SSE 12.7 mph 21.9 mph N/A   Scattered Clouds
1:35 PM 71.6 °F 60.8 °F 69% 30.27 in 10.0 mi SSE 12.7 mph - N/A   Clear
1:55 PM 71.6 °F 60.8 °F 69% 30.25 in 10.0 mi SSE 11.5 mph - N/A   Clear
2:15 PM 71.6 °F 60.8 °F 69% 30.25 in 10.0 mi SSE 9.2 mph 17.3 mph N/A   Clear
2:35 PM 71.6 °F 62.6 °F 73% 30.25 in 10.0 mi SE 11.5 mph - N/A   Clear
2:55 PM 71.6 °F 62.6 °F 73% 30.24 in 10.0 mi SE 11.5 mph - N/A   Clear
3:15 PM 71.6 °F 62.6 °F 73% 30.23 in 10.0 mi SE 11.5 mph - N/A   Clear
3:35 PM 71.6 °F 62.6 °F 73% 30.22 in 10.0 mi SE 12.7 mph - N/A   Clear
3:55 PM 69.8 °F 62.6 °F 78% 30.23 in 10.0 mi SE 11.5 mph 17.3 mph N/A   Clear
4:15 PM 69.8 °F 62.6 °F 78% 30.23 in 10.0 mi SE 10.4 mph - N/A   Clear
4:35 PM 69.8 °F 62.6 °F 78% 30.22 in 10.0 mi ESE 10.4 mph - N/A   Clear
4:55 PM 68.0 °F 62.6 °F 83% 30.22 in 10.0 mi SE 9.2 mph - N/A   Clear
5:15 PM 68.0 °F 62.6 °F 83% 30.21 in 10.0 mi SE 10.4 mph - N/A   Clear
5:35 PM 66.2 °F 62.6 °F 88% 30.21 in 10.0 mi SE 9.2 mph - N/A   Clear
5:55 PM 64.4 °F 62.6 °F 94% 30.21 in 10.0 mi SE 10.4 mph - N/A   Clear
6:15 PM 64.4 °F 62.6 °F 94% 30.21 in 10.0 mi SE 9.2 mph - N/A   Clear
6:35 PM 64.4 °F 62.6 °F 94% 30.20 in 10.0 mi SE 9.2 mph - N/A   Clear
6:55 PM 64.4 °F 62.6 °F 94% 30.20 in 10.0 mi SSE 11.5 mph 17.3 mph N/A   Clear
7:15 PM 64.4 °F 62.6 °F 94% 30.20 in 10.0 mi SSE 10.4 mph - N/A   Clear
7:35 PM 64.4 °F 62.6 °F 94% 30.19 in 10.0 mi SE 11.5 mph 17.3 mph N/A   Clear
7:55 PM 64.4 °F 62.6 °F 94% 30.18 in 10.0 mi SSE 13.8 mph - N/A   Clear
8:15 PM 64.4 °F 62.6 °F 94% 30.18 in 10.0 mi SSE 15.0 mph 19.6 mph N/A   Clear
8:35 PM 64.4 °F 62.6 °F 94% 30.18 in 10.0 mi SSE 9.2 mph - N/A   Clear
8:55 PM 64.4 °F 62.6 °F 94% 30.19 in 10.0 mi SSE 12.7 mph - N/A   Clear
9:15 PM 64.4 °F 62.6 °F 94% 30.18 in 10.0 mi SSE 13.8 mph - N/A   Clear
9:35 PM 64.4 °F 62.6 °F 94% 30.18 in 10.0 mi SSE 12.7 mph 17.3 mph N/A   Clear
9:55 PM 64.4 °F 62.6 °F 94% 30.18 in 10.0 mi SSE 12.7 mph 17.3 mph N/A   Clear
10:15 PM 64.4 °F 62.6 °F 94% 30.18 in 10.0 mi SSE 10.4 mph - N/A   Clear
10:35 PM 64.4 °F 62.6 °F 94% 30.18 in 10.0 mi SSE 10.4 mph - N/A   Clear
10:55 PM 66.2 °F 62.6 °F 88% 30.18 in 10.0 mi South 10.4 mph 16.1 mph N/A   Clear
11:15 PM 66.2 °F 62.6 °F 88% 30.18 in 10.0 mi South 8.1 mph - N/A   Clear
11:35 PM 66.2 °F 62.6 °F 88% 30.18 in 10.0 mi South 10.4 mph - N/A   Clear
11:55 PM 64.4 °F 62.6 °F 94% 30.19 in 10.0 mi SSW 6.9 mph - N/A   Clear